Date String (YYYY-MM-DD hh:mm:ss) UTC,Instrument flags,Ambient pressure (hPa),Sample flow (lpm),Bypass flow (lpm),Sample temperature (°C),Ambient temperature (°C),ASC tube jacket temperature (°C),LED temperature (°C),Box temperature (°C),Sample RH (%),Span deviation,Mass concentration (μg/m³),Mass concentration (μg/m³),Mass concentration (μg/m³)
DateTimeUTC,F1_M11,P_M11,Q1_M11,Q2_M11,T1_M11,T2_M11,T3_M11,T4_M11,T5_M11,U1_M11,ZSPAN_M11,X0_M11,X2_M11,X1_M11
2022-09-12 04:00:00,,0831.2,5.00,0.00,29.9,28.5,00.0,38.7,31.6,15.9,0000.9,0011.62,0007.83,0007.49
2022-09-12 04:01:00,,0831.2,5.00,0.00,29.9,28.5,00.0,38.7,31.6,15.9,0000.6,0011.72,0007.80,0007.46
2022-09-12 04:02:00,,0831.2,5.00,0.00,29.9,28.4,00.0,38.7,31.6,15.2,0000.2,0011.59,0007.76,0007.44
2022-09-12 04:03:00,,0831.2,5.00,0.00,29.9,28.4,00.0,38.7,31.6,15.0,0000.1,0011.48,0007.75,0007.43
2022-09-12 04:04:00,,0831.2,4.99,0.00,29.9,28.5,00.0,38.7,31.6,15.5,0000.3,0011.45,0007.70,0007.40
2022-09-12 04:05:00,,0831.2,5.00,0.00,29.9,28.5,00.0,38.7,31.6,16.1,0000.2,0011.29,0007.67,0007.39
2022-09-12 04:06:00,,0831.2,5.00,0.00,29.9,28.4,00.0,38.7,31.6,15.6,0000.1,0011.28,0007.68,0007.40
2022-09-12 04:07:00,,0831.2,5.01,0.00,29.9,28.4,00.0,38.7,31.6,15.2,0000.3,0011.26,0007.67,0007.39
2022-09-12 04:08:00,,0831.2,4.99,0.00,29.9,28.4,00.0,38.7,31.6,15.5,0000.7,0010.78,0007.63,0007.38
2022-09-12 04:09:00,,0831.2,5.01,0.00,29.9,28.5,00.0,38.7,31.6,16.3,0000.8,0010.54,0007.63,0007.39
2022-09-12 04:10:00,,0831.1,4.99,0.00,29.9,28.5,00.0,38.7,31.6,15.7,0001.3,0010.56,0007.62,0007.37
2022-09-12 04:11:00,,0831.1,5.01,0.00,29.9,28.4,00.0,38.7,31.6,15.0,0001.6,0010.13,0007.59,0007.36
2022-09-12 04:12:00,,0831.1,5.00,0.00,29.9,28.4,00.0,38.7,31.6,14.9,0002.0,0009.86,0007.56,0007.32
2022-09-12 04:13:00,,0831.1,5.01,0.00,29.9,28.4,00.0,38.7,31.6,15.0,0002.3,0009.82,0007.53,0007.30
2022-09-12 04:14:00,,0831.1,4.98,0.00,29.9,28.4,00.0,38.7,31.6,15.2,0002.8,0009.77,0007.51,0007.27
2022-09-12 04:15:00,,0831.1,5.00,0.00,29.9,28.4,00.0,38.7,31.6,14.9,0003.3,0009.75,0007.47,0007.26
2022-09-12 04:16:00,,0831.1,5.01,0.00,29.9,28.5,00.0,38.7,31.6,14.8,0003.5,0010.33,0007.45,0007.23
2022-09-12 04:17:00,,0831.1,4.99,0.00,29.9,28.5,00.0,38.7,31.6,14.8,0003.5,0010.32,0007.42,0007.18
2022-09-12 04:18:00,,0831.1,5.00,0.00,29.9,28.4,00.0,38.7,31.6,14.4,0003.7,0010.39,0007.40,0007.15
2022-09-12 04:19:00,,0831.0,5.01,0.00,29.9,28.3,00.0,38.7,31.6,14.9,0003.5,0010.59,0007.38,0007.12
2022-09-12 04:20:00,,0831.0,5.00,0.00,29.9,28.3,00.0,38.7,31.6,15.1,0003.5,0010.72,0007.38,0007.10
2022-09-12 04:21:00,,0831.0,5.01,0.00,29.9,28.4,00.0,38.7,31.6,15.0,0003.3,0010.70,0007.35,0007.06
2022-09-12 04:22:00,,0831.0,5.00,0.00,29.8,28.4,00.0,38.7,31.6,14.8,0003.1,0010.77,0007.36,0007.06
2022-09-12 04:23:00,,0831.0,4.98,0.00,29.8,28.4,00.0,38.7,31.6,15.0,0003.1,0010.78,0007.37,0007.07
2022-09-12 04:24:00,,0831.0,5.01,0.00,29.8,28.4,00.0,38.7,31.6,14.7,0003.4,0010.96,0007.34,0007.05
2022-09-12 04:25:00,,0831.0,5.00,0.00,29.8,28.4,00.0,38.7,31.6,15.0,0003.4,0011.20,0007.32,0007.02
2022-09-12 04:26:00,,0831.0,5.00,0.00,29.9,28.4,00.0,38.7,31.6,14.2,0002.6,0011.28,0007.32,0007.00
2022-09-12 04:27:00,,0831.0,4.99,0.00,29.9,28.4,00.0,38.7,31.6,14.3,0002.4,0010.73,0007.33,0006.99
2022-09-12 04:28:00,,0831.0,5.01,0.00,29.8,28.4,00.0,38.7,31.5,14.5,0002.2,0010.76,0007.34,0006.98
2022-09-12 04:29:00,,0831.0,5.00,0.00,29.8,28.5,00.0,38.7,31.5,14.5,0001.8,0010.79,0007.35,0006.98
2022-09-12 04:30:00,,0831.0,4.98,0.00,29.8,28.5,00.0,38.7,31.6,14.5,0001.7,0010.52,0007.32,0006.98
2022-09-12 04:31:00,,0831.0,5.01,0.00,29.8,28.4,00.0,38.6,31.5,14.3,0001.3,0010.49,0007.29,0006.95
2022-09-12 04:32:00,,0831.1,5.01,0.00,29.8,28.4,00.0,38.6,31.5,14.6,0001.5,0010.89,0007.28,0006.94
2022-09-12 04:33:00,,0831.0,4.99,0.00,29.8,28.4,00.0,38.6,31.5,14.8,0001.6,0011.64,0007.29,0006.93
2022-09-12 04:34:00,,0831.0,4.99,0.00,29.8,28.4,00.0,38.6,31.5,15.1,0001.7,0011.69,0007.31,0006.93
2022-09-12 04:35:00,,0831.1,5.00,0.00,29.8,28.4,00.0,38.6,31.5,14.9,0001.3,0011.54,0007.31,0006.92
2022-09-12 04:36:00,,0831.0,5.00,0.00,29.8,28.3,00.0,38.6,31.5,14.8,0001.0,0011.22,0007.32,0006.94
2022-09-12 04:37:00,,0831.0,5.00,0.00,29.8,28.3,00.0,38.6,31.5,14.1,0001.5,0011.14,0007.31,0006.94
2022-09-12 04:38:00,,0831.1,4.99,0.00,29.8,28.4,00.0,38.6,31.5,14.5,0001.7,0011.20,0007.27,0006.93
2022-09-12 04:39:00,,0831.1,5.00,0.00,29.8,28.4,00.0,38.6,31.5,14.4,0001.5,0011.80,0007.25,0006.93
2022-09-12 04:40:00,,0831.1,5.00,0.00,29.8,28.4,00.0,38.6,31.5,14.5,0001.8,0011.73,0007.22,0006.92
2022-09-12 04:41:00,,0831.0,5.00,0.00,29.8,28.4,00.0,38.6,31.5,14.5,0002.0,0011.71,0007.22,0006.91
2022-09-12 04:42:00,,0831.0,4.98,0.00,29.8,28.4,00.0,38.6,31.5,14.1,0002.2,0011.65,0007.22,0006.91
2022-09-12 04:43:00,,0831.1,5.00,0.00,29.8,28.3,00.0,38.6,31.5,14.0,0001.9,0011.24,0007.21,0006.91
2022-09-12 04:44:00,,0831.1,5.01,0.00,29.8,28.2,00.0,38.6,31.5,14.1,0001.6,0010.57,0007.19,0006.89
2022-09-12 04:45:00,,0831.0,5.01,0.00,29.8,28.2,00.0,38.6,31.5,13.7,0001.4,0010.40,0007.14,0006.87
2022-09-12 04:46:00,,0831.0,5.00,0.00,29.8,28.3,00.0,38.6,31.5,13.7,0001.6,0010.63,0007.13,0006.86
2022-09-12 04:47:00,,0831.0,4.98,0.00,29.8,28.3,00.0,38.6,31.5,13.5,0001.8,0010.76,0007.08,0006.81
2022-09-12 04:48:00,,0831.1,5.01,0.00,29.8,28.3,00.0,38.6,31.5,13.7,0001.6,0010.74,0007.06,0006.79
2022-09-12 04:49:00,,0831.0,5.00,0.00,29.7,28.2,00.0,38.6,31.5,13.4,0001.3,0010.62,0007.05,0006.77
2022-09-12 04:50:00,,0831.0,5.00,0.00,29.8,28.3,00.0,38.6,31.5,13.6,0001.3,0009.87,0007.04,0006.74
2022-09-12 04:51:00,,0831.0,5.00,0.00,29.8,28.3,00.0,38.6,31.5,13.7,0001.7,0009.91,0007.04,0006.73
2022-09-12 04:52:00,,0830.9,5.00,0.00,29.8,28.3,00.0,38.6,31.5,13.6,0001.7,0009.97,0007.03,0006.71
2022-09-12 04:53:00,,0830.9,5.00,0.00,29.7,28.2,00.0,38.6,31.5,13.8,0002.0,0009.94,0006.99,0006.68
2022-09-12 04:54:00,,0830.9,5.01,0.00,29.7,28.2,00.0,38.6,31.5,13.8,0002.0,0009.87,0006.94,0006.65
2022-09-12 04:55:00,,0830.9,4.99,0.00,29.8,28.3,00.0,38.6,31.5,13.4,0002.2,0009.65,0006.89,0006.64
2022-09-12 04:56:00,,0830.9,5.00,0.00,29.8,28.3,00.0,38.6,31.5,13.3,0002.4,0009.58,0006.86,0006.63
2022-09-12 04:57:00,,0830.9,4.99,0.00,29.7,28.3,00.0,38.6,31.5,13.3,0002.8,0009.58,0006.88,0006.62
2022-09-12 04:58:00,,0830.9,5.01,0.00,29.7,28.3,00.0,38.6,31.4,13.4,0002.9,0009.28,0006.90,0006.64
2022-09-12 04:59:00,,0830.9,5.01,0.00,29.8,28.3,00.0,38.6,31.5,13.9,0003.0,0009.25,0006.91,0006.67
